Location: Gisborne
(38.6530°S, 178.0040°E)
Time: 14:09:52
(UTC+13:00)

SL-08 RB Rocket - Pass Details

Date: 24 January 2019
Orbit: 647 x 685 km, 97.9° (Epoch: 12 October)

Event Time Altitude Azimuth Distance (km) Brightness Sun altitude
Rises 21:54:20 0° 156° (SSE) 3,004 7.3 -14.7°
Reaches altitude 10° 21:56:50 10° 144° (SE) 2,088 6.3 -15.1°
Maximum altitude 22:00:47 29° 84° (E) 1,220 4.6 -15.7°
Enters shadow 22:01:44 27° 62° (ENE) 1,285 4.6 -15.8°
